Vertical_Velocity
2 1 -0 -1 -0 -1 -1 -1 -1 -1 -1 -2 -3 -4 -4 -2 -1 -1 -2 -2 -2 -2 -2 -1 -0 1 2 3 2 2 1 2 1 1 2 2 2 1 1 2 2 2 2 1 1 1 2 2 3 3 3 3 3 3 4 4 3 2 1 0 -2 -2 -2 -1 -1 -1 -0 -0 -0
0 -0 0 1 1 1 0 0 -1 -2 -2 -3 -3 -3 -3 -2 -1 -1 -2 -2 -3 -2 -2 -1 0 1 1 2 2 2 2 2 1 1 2 2 2 2 2 2 2 3 2 1 1 1 1 2 3 3 2 2 2 2 2 1 1 1 1 0 -0 -1 -2 -2 -1 -0 1 1 1
1 2 2 2 0 -1 -2 -3 -4 -4 -3 -2 -1 -1 -1 -1 -0 -1 -2 -2 -2 -1 -1 -1 -0 1 1 2 2 2 2 2 1 1 2 2 2 2 2 3 3 3 2 2 1 1 1 3 3 2 2 2 2 1 1 0 0 0 0 -0 0 0 -1 -2 -1 -0 0 1 1
2 2 1 -1 -3 -4 -6 -6 -5 -3 -2 -0 0 0 -0 -1 -0 -1 -1 -1 -0 -1 -1 -1 -0 1 1 2 2 2 2 2 2 2 2 2 2 3 3 3 3 3 2 2 1 1 2 4 4 3 2 1 1 1 0 0 1 1 1 0 1 1 0 -0 0 0 0 0 1
1 -0 -2 -3 -3 -3 -3 -2 -1 -0 0 1 1 -0 -1 -0 -0 -0 -1 -1 -2 -2 -2 -0 1 1 2 2 2 2 2 2 2 2 2 3 3 3 3 3 3 3 2 3 3 3 4 4 3 3 2 1 1 1 0 0 2 2 2 1 2 2 2 3 2 2 2 2 3
-0 1 1 1 2 2 2 1 1 1 1 1 -0 -1 -1 -1 -1 -1 -2 -3 -3 -2 -1 1 1 2 2 2 2 2 2 2 2 2 2 2 2 3 3 3 3 3 4 4 4 4 3 2 1 1 1 1 1 0 -0 1 2 2 1 2 1 2 3 5 3 3 4 5 4
1 2 3 3 3 3 2 0 1 1 2 0 -1 -2 -2 -2 -2 -2 -3 -3 -2 -1 0 0 1 2 2 2 2 1 1 1 2 2 2 2 2 2 2 2 3 4 4 3 2 1 0 -1 -0 0 0 1 1 0 -0 2 2 2 1 1 1 4 6 5 4 4 4 4 3
4 4 3 2 2 2 1 -0 1 1 1 -0 -1 -1 -1 -1 -1 -2 -2 -1 -1 -1 -1 -0 1 1 1 1 1 1 1 1 1 2 2 2 2 2 2 3 4 3 2 1 0 -1 -1 -1 0 0 1 1 1 1 1 2 2 2 1 0 1 3 4 2 1 2 2 3 3
5 4 4 3 3 2 1 -0 -0 -0 -0 -1 -0 0 0 -0 -1 -1 -1 -2 -2 -1 -0 0 1 1 2 1 1 1 1 1 1 1 2 3 3 3 3 3 3 2 0 -1 -1 -0 -0 1 1 1 1 1 1 1 1 1 1 1 0 -0 1 1 2 2 1 1 2 2 1
1 2 4 4 3 2 1 1 1 1 0 -0 1 1 1 -1 -1 -2 -2 -2 -0 1 1 1 1 2 1 1 1 1 0 -0 -0 1 2 3 3 3 2 2 1 0 -0 -0 0 1 1 2 2 1 0 -0 -1 -1 -1 -0 0 0 0 1 1 1 1 2 2 2 2 1 2
-0 1 2 1 1 2 2 2 2 2 2 1 1 1 0 -1 -1 -1 -1 1 1 1 1 1 1 1 1 1 1 0 -0 -1 -1 -0 1 2 3 2 2 1 0 -0 -0 -0 0 1 1 1 1 0 -0 -1 -1 -1 -1 -0 0 0 -0 0 1 1 1 2 2 3 3 3 3
3 3 2 1 1 2 2 2 1 1 1 1 1 1 0 -0 -0 0 1 2 1 1 1 2 1 0 0 0 1 -0 -1 -1 -1 -1 0 1 2 1 1 -0 -0 -1 -0 0 1 1 1 0 -0 -0 -0 0 0 0 -0 -0 0 0 1 1 2 3 3 4 4 4 4 3 2
3 3 3 2 2 2 2 1 1 1 0 0 1 1 1 0 1 1 1 1 1 1 2 2 1 1 0 1 -0 -1 -1 -1 -1 -1 -0 0 0 -0 -1 -1 -1 -0 -0 0 1 1 0 0 0 0 0 0 0 -0 -0 -0 0 1 2 2 3 4 5 5 4 4 3 2 2
4 3 2 1 1 1 1 1 1 0 -0 0 1 1 1 1 2 2 2 1 2 1 1 1 1 1 1 1 -0 -1 -1 -1 -0 -0 -0 -0 -1 -1 -1 -1 -1 -0 1 1 2 2 2 1 1 0 -0 -0 -0 -0 -0 0 1 2 3 4 5 5 4 4 4 3 2 2 2
4 2 1 1 1 1 1 0 -0 -0 -0 1 1 1 2 2 2 2 2 2 2 1 1 1 1 2 2 1 0 -0 -0 0 -0 -0 -0 -0 -0 -1 -1 -0 0 1 1 2 2 2 1 -0 -1 -1 -1 -0 0 0 1 1 2 3 4 5 4 4 3 3 2 2 2 1 0
2 2 2 1 1 0 -0 -0 -0 -0 0 0 1 1 2 2 2 2 2 3 2 2 1 1 1 2 2 2 2 1 1 1 1 0 0 0 0 0 0 1 1 1 1 1 0 -1 -2 -2 -2 -1 0 1 2 2 3 3 4 4 4 3 3 2 2 2 1 1 1 0 -0
1 1 1 0 0 -0 -1 -1 -0 -0 0 0 1 2 2 2 2 2 2 2 2 1 1 1 1 1 1 2 3 2 2 1 1 1 1 1 0 0 1 1 0 0 -0 -1 -2 -2 -2 -1 -0 1 2 3 3 4 4 4 4 3 3 2 1 1 1 1 1 0 0 0 0
1 0 0 0 -0 -1 -1 -1 -1 -0 -0 0 1 1 2 1 1 2 2 3 1 0 -0 0 1 1 0 1 2 2 2 2 1 1 1 1 1 0 0 -0 -0 -1 -1 -1 -1 -1 -0 1 2 3 4 4 4 4 3 3 2 2 1 1 1 0 0 0 1 1 1 1 1
0 0 -0 -0 -0 0 0 0 -0 -0 0 1 1 1 2 2 1 2 3 3 1 -0 -1 -1 0 0 0 -0 1 2 2 2 1 1 1 1 0 -0 -1 -0 -0 0 1 1 1 1 2 2 3 4 4 4 3 2 2 2 2 2 1 1 1 0 0 0 1 1 1 1 0
-0 -0 -1 -1 0 1 1 1 1 1 1 2 2 2 2 2 2 2 2 2 0 -1 -2 -1 -0 -0 -0 0 1 2 2 2 1 1 1 0 -1 -1 -1 -0 1 2 2 3 3 2 2 3 4 4 4 3 2 2 2 2 2 1 1 1 0 0 0 0 0 0 0 0 -0
0 -0 0 1 1 2 2 2 1 1 2 2 2 2 2 2 3 2 1 -0 -1 -1 -1 0 -0 -1 -1 -0 1 1 1 0 0 0 0 -0 -1 -1 -1 0 1 2 3 3 2 2 2 3 4 4 3 2 2 2 2 1 1 1 1 0 0 -0 -0 -0 -0 -0 -0 -0 -1
1 1 2 3 3 2 2 2 2 2 2 2 2 2 2 2 2 1 -0 -1 -1 -1 -0 0 -0 -1 -1 -1 -0 -1 -1 -1 -1 -0 0 -0 -1 -1 -1 -0 1 1 2 1 1 1 2 2 2 2 1 1 1 1 1 1 1 1 1 0 -0 -0 -1 -1 -1 -1 -1 -1 -1
2 3 4 4 4 3 3 3 2 2 2 3 2 2 2 1 0 -0 -0 0 1 1 0 -0 -0 -0 -0 0 -0 -1 -2 -2 -1 -0 0 0 -1 -1 -1 0 1 1 1 1 1 2 2 1 1 1 1 1 1 1 1 1 1 1 1 0 -0 -1 -1 -1 -1 -1 -1 -1 -1
3 3 3 3 4 3 3 2 2 2 3 2 2 1 1 -1 -1 -0 0 2 2 1 0 -1 -0 0 1 1 1 -0 -1 -1 -1 -1 0 0 -0 -0 0 1 1 1 1 2 2 2 1 1 1 1 1 1 1 1 1 1 1 1 0 -0 -0 -1 -1 -1 -1 -1 -0 -0 -0
3 2 2 2 3 3 2 2 2 2 2 1 1 0 -0 -1 -1 0 1 3 3 1 -0 -1 0 1 1 1 1 1 1 0 -0 -0 0 0 0 0 1 1 1 1 2 2 2 2 1 1 1 1 1 1 2 1 1 1 1 0 -0 -1 -1 -1 -1 -0 -0 -0 0 1 0
3 2 2 1 2 2 2 2 2 2 1 1 1 0 -0 0 1 2 2 3 1 0 0 0 1 1 1 1 1 1 2 2 2 2 1 1 0 0 1 1 1 1 1 2 2 1 1 1 1 1 1 1 1 1 1 1 0 -0 -1 -1 -1 -1 -0 -0 -1 -0 -0 1 0
2 2 2 1 2 2 2 1 2 2 1 1 0 0 1 2 3 3 2 1 -0 -0 1 2 2 2 1 1 1 1 1 1 2 2 2 2 1 1 1 1 1 1 1 1 1 1 1 1 1 1 1 0 0 -0 -0 -0 -1 -1 -1 -1 -1 -1 -0 -0 -1 -1 -1 -0 -0
1 1 1 2 2 2 1 2 2 2 1 0 -0 0 1 3 2 2 1 -1 -1 0 2 3 2 2 1 1 1 1 1 1 1 1 1 2 2 2 2 1 1 1 1 1 1 1 2 2 2 1 -1 -2 -2 -2 -1 -1 -1 -1 -1 -2 -1 -1 -1 -1 -2 -2 -2 -1 -1
0 1 1 1 1 1 1 2 1 1 1 -0 0 1 1 1 1 -0 -1 -1 -0 -0 0 0 0 0 0 -0 0 1 2 2 2 2 2 2 2 2 1 1 1 1 1 1 2 2 2 2 1 -1 -2 -2 -2 -1 -1 -1 -1 -1 -1 -1 -1 -1 -1 -2 -2 -2 -2 -1 -1
1 1 0 -1 -0 0 1 1 1 1 0 -0 -0 0 0 0 0 0 0 -0 -0 -1 -2 -3 -2 -1 -1 -0 0 1 2 3 4 4 3 2 1 1 1 1 1 1 1 1 1 2 2 1 -0 -1 -1 0 -0 -0 -1 -1 -1 -1 -1 -1 -1 -1 -2 -2 -2 -2 -2 -1 -1
1 0 -1 -1 0 1 2 2 2 1 -0 -1 -1 -1 -1 0 0 0 -0 -0 -1 -1 -1 -0 -0 0 0 1 1 1 2 4 4 3 2 1 1 1 1 1 1 1 1 1 1 1 1 -0 -1 -1 -1 0 -0 -0 -0 -0 -0 -0 -0 -0 -1 -1 -2 -2 -2 -2 -2 -2 -1
-0 -1 -1 -0 1 1 2 2 2 1 -0 -1 -1 -1 -0 -0 -0 -0 -0 -0 -1 -0 0 1 1 1 1 1 2 3 4 4 3 2 1 1 1 1 1 1 1 0 0 1 1 1 0 -0 -1 -1 -1 -1 -0 0 0 0 -0 -0 -1 -1 -1 -2 -2 -2 -2 -2 -2 -2 -2
-1 -1 -1 -0 1 1 1 1 1 0 0 -0 -1 -1 -0 -0 -0 0 1 1 1 1 1 1 1 1 1 1 1 2 3 3 2 1 1 1 1 1 1 1 0 0 0 1 1 0 -0 -0 -0 -0 -1 -1 0 0 0 0 -0 -0 -1 -1 -2 -2 -2 -2 -2 -2 -2 -2 -2
-1 -0 0 0 0 0 0 1 1 1 0 -0 -0 -0 -1 -1 -0 0 1 2 2 2 2 2 2 2 2 2 2 2 1 1 1 1 1 1 1 1 1 1 0 0 0 -0 -1 -1 -1 -1 -1 -0 0 1 1 1 0 -0 -1 -1 -1 -1 -2 -2 -2 -2 -2 -2 -2 -2 -2
-2 -1 -1 -0 -1 -1 -0 1 1 0 -1 -1 -0 -0 -0 0 -0 -0 0 1 2 2 3 3 2 2 3 3 2 2 1 0 0 1 1 1 1 1 1 1 0 -0 -1 -2 -2 -2 -2 -2 -1 0 1 1 0 0 -0 -1 -1 -1 -1 -2 -2 -2 -2 -2 -2 -2 -2 -2 -2
-2 -3 -3 -2 -1 -0 -0 0 -0 -0 -1 -1 -1 -0 0 1 2 2 1 1 1 1 1 1 1 1 1 1 1 1 1 1 1 1 1 1 2 1 1 -1 -1 -1 -2 -2 -2 -2 -1 -0 0 0 0 0 -0 -0 -1 -1 -1 -1 -2 -2 -2 -2 -2 -2 -2 -2 -2 -2 -1
-1 -3 -3 -3 -1 -0 -0 -0 -1 -1 -0 -0 -1 -1 -0 1 2 2 2 1 0 0 0 1 0 0 0 0 1 2 2 3 2 1 1 2 2 1 -0 -2 -1 -1 -1 -1 -1 -1 -0 0 1 0 0 -0 -1 -1 -1 -1 -1 -1 -2 -2 -2 -2 -2 -2 -2 -2 -1 -1 -1
-0 -1 -1 -1 -1 -1 -0 -1 -1 -1 -1 -1 -0 0 0 0 1 2 2 1 0 0 0 1 0 1 1 2 1 2 3 3 3 2 1 2 2 1 -1 -3 -2 -1 -1 -1 -0 0 0 0 0 0 -0 -0 -1 -1 -1 -1 -1 -2 -2 -2 -2 -2 -2 -2 -2 -1 -1 -1 -1
1 1 0 -0 -1 -1 -1 -1 -1 -1 -1 -1 0 1 1 1 1 1 2 2 2 1 1 0 1 1 2 2 2 2 2 3 3 3 2 1 1 0 -1 -3 -2 -1 -0 -0 0 0 0 -0 -0 -0 -0 -0 -0 -1 -1 -1 -1 -1 -2 -1 -2 -2 -1 -1 -1 -1 -1 -1 -1
1 2 2 1 -1 -2 -2 -1 -1 -0 -0 -0 0 0 1 1 1 1 2 3 3 3 2 1 1 1 2 2 1 1 1 1 3 3 2 0 0 -0 -1 -1 -1 -0 0 0 0 0 0 -0 -0 -0 -0 -0 -1 -1 -1 -1 -1 -1 -1 -1 -1 -1 -1 -1 -1 -1 -1 -1 -1
2 2 2 1 -1 -2 -2 -1 -0 1 1 1 1 -0 -0 0 1 1 1 2 2 3 2 1 1 1 2 2 2 1 0 -0 1 2 1 -0 -0 -0 -0 0 0 0 0 0 0 0 0 0 0 0 -0 -0 -1 -1 -1 -1 -1 -1 -1 -1 -1 -1 -1 -1 -1 -1 -1 -0 -0
Height
1458 1460 1461 1462 1463 1464 1466 1467 1468 1469 1470 1471 1472 1473 1473 1474 1476 1477 1478 1479 1480 1481 1483 1483 1484 1485 1486 1487 1488 1488 1489 1490 1491 1493 1494 1495 1497 1498 1498 1499 1500 1502 1503 1504 1505 1507 1508 1509 1510 1511 1511 1512 1513 1513 1514 1514 1514 1514 1515 1515 1516 1517 1517 1517 1517 1517 1517 1517 1518
1457 1458 1459 1460 1462 1463 1464 1465 1466 1467 1468 1469 1470 1471 1472 1473 1474 1476 1477 1478 1479 1480 1482 1483 1484 1484 1485 1486 1487 1487 1488 1489 1490 1492 1493 1494 1496 1497 1498 1499 1500 1501 1502 1503 1504 1506 1507 1508 1509 1509 1510 1511 1512 1513 1513 1513 1513 1513 1513 1514 1514 1515 1516 1516 1516 1516 1516 1516 1516
1455 1456 1458 1459 1460 1461 1463 1463 1464 1465 1467 1468 1469 1470 1471 1472 1473 1474 1476 1477 1478 1480 1481 1482 1483 1483 1484 1485 1486 1487 1487 1488 1489 1491 1492 1493 1495 1496 1497 1498 1499 1500 1501 1502 1503 1505 1506 1507 1508 1508 1509 1510 1511 1511 1512 1512 1512 1512 1512 1513 1513 1514 1514 1514 1514 1514 1515 1514 1514
1453 1455 1456 1457 1458 1459 1460 1461 1462 1463 1465 1466 1468 1469 1470 1471 1473 1474 1475 1476 1478 1479 1480 1481 1482 1483 1483 1484 1485 1486 1487 1488 1488 1490 1491 1493 1494 1495 1496 1498 1498 1499 1500 1502 1503 1504 1505 1506 1507 1508 1508 1509 1510 1510 1510 1510 1511 1511 1511 1512 1512 1513 1513 1513 1513 1513 1513 1513 1513
1452 1453 1454 1455 1456 1457 1458 1459 1461 1462 1463 1465 1467 1468 1469 1470 1472 1473 1474 1475 1477 1478 1479 1480 1481 1482 1483 1483 1484 1485 1486 1487 1488 1489 1490 1492 1493 1494 1496 1497 1498 1499 1500 1501 1502 1503 1504 1505 1506 1506 1507 1508 1508 1509 1509 1509 1510 1510 1510 1511 1511 1512 1512 1512 1512 1512 1512 1512 1512
1449 1451 1452 1453 1455 1456 1457 1458 1460 1461 1463 1464 1465 1467 1468 1469 1470 1472 1473 1474 1475 1477 1478 1479 1480 1481 1482 1483 1483 1484 1485 1486 1487 1488 1490 1491 1492 1494 1495 1496 1497 1498 1499 1500 1501 1502 1503 1503 1504 1505 1506 1507 1507 1508 1508 1508 1509 1509 1509 1510 1510 1511 1511 1511 1511 1511 1511 1510 1510
1448 1449 1451 1452 1454 1455 1456 1458 1459 1460 1462 1463 1464 1465 1466 1468 1469 1470 1472 1473 1475 1476 1477 1478 1479 1480 1481 1482 1483 1483 1484 1485 1486 1488 1489 1490 1491 1493 1494 1495 1496 1497 1498 1498 1499 1501 1502 1503 1504 1504 1505 1506 1506 1507 1507 1508 1508 1508 1509 1509 1510 1510 1509 1509 1510 1510 1510 1510 1510
1447 1448 1450 1451 1453 1454 1455 1456 1458 1459 1461 1462 1463 1464 1465 1467 1468 1470 1471 1473 1474 1475 1476 1477 1478 1479 1480 1481 1482 1483 1483 1484 1486 1487 1488 1489 1491 1492 1493 1494 1495 1496 1497 1498 1498 1500 1501 1502 1503 1504 1504 1505 1505 1506 1506 1507 1507 1508 1508 1508 1509 1509 1509 1509 1509 1509 1509 1508 1508
1446 1448 1449 1450 1452 1453 1454 1455 1457 1458 1459 1460 1462 1463 1465 1466 1468 1469 1470 1472 1473 1474 1475 1476 1477 1478 1479 1480 1481 1482 1483 1484 1485 1486 1487 1488 1490 1491 1492 1493 1494 1495 1496 1497 1498 1499 1500 1502 1502 1503 1503 1504 1505 1505 1505 1506 1506 1507 1507 1508 1508 1508 1508 1508 1508 1508 1507 1507 1507
1444 1446 1448 1449 1451 1452 1453 1454 1456 1457 1458 1460 1461 1463 1464 1466 1467 1468 1469 1471 1472 1473 1474 1475 1476 1477 1478 1479 1480 1481 1482 1483 1484 1485 1487 1488 1489 1490 1491 1492 1493 1494 1495 1496 1498 1499 1500 1501 1501 1502 1503 1503 1504 1504 1505 1505 1505 1506 1506 1506 1506 1506 1506 1506 1506 1506 1506 1506 1505
1443 1445 1446 1448 1449 1451 1452 1453 1455 1456 1458 1459 1461 1462 1463 1465 1466 1468 1469 1470 1472 1473 1473 1474 1475 1476 1478 1478 1479 1480 1481 1483 1483 1485 1486 1487 1488 1489 1491 1492 1493 1494 1495 1496 1497 1498 1499 1500 1500 1501 1502 1502 1503 1503 1504 1504 1504 1504 1505 1505 1505 1505 1505 1505 1505 1505 1505 1505 1504
1442 1443 1445 1447 1448 1450 1451 1453 1454 1456 1457 1458 1460 1462 1463 1464 1466 1467 1468 1470 1471 1471 1473 1473 1475 1476 1477 1478 1479 1480 1481 1482 1483 1484 1485 1487 1488 1489 1490 1491 1492 1493 1494 1495 1496 1497 1498 1499 1499 1500 1501 1501 1502 1502 1503 1503 1503 1503 1503 1504 1504 1504 1504 1504 1504 1504 1504 1503 1503
1441 1443 1444 1446 1447 1448 1450 1452 1453 1455 1456 1458 1459 1461 1462 1464 1465 1467 1468 1469 1470 1471 1472 1473 1474 1475 1476 1477 1478 1479 1480 1481 1482 1483 1485 1486 1488 1489 1490 1491 1492 1493 1494 1495 1496 1496 1497 1498 1498 1499 1500 1500 1501 1501 1502 1502 1503 1503 1503 1503 1503 1503 1503 1503 1503 1503 1502 1502 1502
1440 1441 1443 1444 1446 1448 1449 1451 1452 1454 1455 1457 1458 1460 1462 1463 1465 1466 1467 1468 1469 1470 1471 1473 1474 1475 1476 1477 1478 1478 1480 1481 1482 1483 1484 1486 1487 1488 1489 1490 1491 1492 1493 1494 1495 1496 1497 1497 1498 1498 1499 1499 1500 1501 1501 1501 1502 1502 1502 1502 1502 1503 1502 1502 1502 1501 1501 1501 1500
1439 1440 1442 1443 1445 1447 1448 1450 1451 1453 1454 1456 1458 1460 1461 1463 1464 1465 1466 1467 1468 1469 1471 1472 1473 1474 1475 1476 1477 1478 1479 1480 1482 1483 1484 1485 1486 1487 1488 1489 1491 1492 1493 1493 1494 1495 1496 1496 1497 1498 1498 1499 1499 1500 1500 1500 1501 1501 1501 1501 1501 1501 1501 1501 1500 1500 1500 1499 1499
1438 1439 1441 1442 1444 1445 1447 1449 1450 1452 1453 1455 1457 1459 1460 1462 1463 1464 1465 1466 1468 1469 1470 1472 1473 1474 1475 1476 1477 1478 1479 1480 1481 1482 1483 1484 1486 1487 1488 1489 1490 1491 1492 1493 1494 1494 1495 1495 1496 1497 1498 1498 1498 1499 1499 1500 1500 1500 1500 1500 1500 1500 1499 1499 1499 1499 1498 1498 1498
1436 1438 1439 1441 1443 1444 1446 1448 1449 1451 1453 1454 1456 1458 1459 1461 1462 1463 1464 1466 1467 1468 1470 1471 1472 1473 1474 1476 1477 1478 1479 1479 1480 1482 1483 1484 1485 1486 1488 1489 1490 1491 1492 1492 1493 1493 1494 1495 1496 1496 1497 1497 1498 1498 1498 1499 1499 1499 1499 1499 1499 1498 1498 1498 1498 1498 1498 1497 1497
1435 1437 1438 1440 1442 1443 1445 1446 1448 1450 1452 1454 1456 1457 1458 1459 1461 1462 1464 1465 1466 1468 1468 1470 1471 1473 1474 1475 1476 1477 1478 1479 1480 1481 1482 1483 1485 1486 1487 1488 1489 1490 1491 1492 1493 1493 1494 1495 1495 1496 1496 1497 1497 1498 1498 1498 1498 1498 1498 1498 1498 1498 1498 1497 1497 1497 1496 1496 1496
1434 1435 1437 1439 1441 1442 1444 1445 1447 1449 1451 1453 1455 1456 1458 1459 1460 1462 1463 1465 1465 1466 1467 1469 1470 1472 1473 1475 1476 1477 1478 1479 1480 1481 1482 1483 1485 1486 1487 1488 1489 1490 1491 1492 1492 1493 1493 1494 1495 1495 1496 1496 1497 1497 1497 1497 1497 1497 1497 1497 1497 1496 1496 1496 1496 1496 1495 1495 1494
1433 1434 1436 1438 1440 1441 1443 1445 1447 1449 1451 1453 1454 1455 1457 1458 1460 1461 1463 1463 1464 1465 1467 1468 1470 1472 1473 1475 1476 1477 1478 1478 1479 1481 1482 1483 1484 1485 1487 1488 1489 1490 1491 1491 1492 1493 1493 1493 1494 1494 1495 1495 1495 1496 1496 1496 1496 1496 1496 1495 1495 1495 1495 1495 1495 1494 1494 1494 1493
1432 1433 1435 1437 1439 1441 1442 1444 1447 1448 1450 1452 1453 1454 1456 1458 1459 1460 1461 1462 1463 1465 1467 1468 1470 1471 1473 1474 1475 1476 1477 1478 1479 1480 1482 1483 1484 1485 1487 1488 1488 1489 1490 1491 1491 1492 1492 1493 1493 1494 1494 1494 1494 1494 1495 1495 1495 1495 1495 1494 1494 1494 1494 1494 1494 1493 1493 1493 1492
1431 1433 1435 1437 1438 1440 1442 1444 1447 1448 1450 1451 1453 1454 1455 1457 1458 1459 1461 1462 1463 1465 1467 1468 1470 1471 1472 1473 1475 1475 1477 1478 1479 1480 1481 1483 1484 1485 1487 1488 1488 1489 1489 1490 1490 1491 1492 1492 1493 1493 1493 1493 1493 1494 1494 1494 1494 1494 1494 1494 1493 1493 1493 1493 1493 1493 1492 1492 1492
1430 1433 1434 1436 1438 1440 1442 1444 1446 1448 1449 1451 1452 1453 1454 1456 1457 1459 1460 1462 1463 1465 1467 1468 1470 1471 1472 1473 1474 1475 1476 1477 1478 1480 1481 1483 1484 1485 1486 1487 1488 1488 1488 1489 1490 1490 1491 1491 1492 1492 1492 1493 1493 1493 1493 1493 1493 1493 1493 1493 1493 1493 1493 1492 1492 1492 1492 1491 1491
1430 1432 1434 1436 1438 1440 1442 1444 1446 1447 1448 1450 1451 1452 1453 1455 1457 1458 1460 1462 1463 1465 1467 1468 1469 1470 1472 1473 1473 1474 1476 1477 1478 1480 1481 1483 1484 1485 1485 1486 1487 1488 1488 1489 1489 1490 1490 1491 1491 1491 1491 1492 1492 1492 1492 1492 1493 1493 1492 1492 1492 1492 1492 1492 1491 1491 1491 1491 1490
1429 1431 1433 1435 1438 1440 1442 1443 1445 1446 1448 1448 1450 1451 1453 1454 1456 1458 1460 1462 1463 1465 1466 1467 1468 1470 1471 1472 1473 1474 1476 1477 1478 1480 1481 1482 1483 1484 1485 1485 1486 1487 1488 1488 1489 1489 1490 1490 1490 1490 1491 1491 1491 1491 1492 1492 1492 1492 1492 1491 1491 1491 1491 1491 1491 1490 1490 1490 1490
1429 1431 1433 1435 1437 1439 1441 1443 1444 1445 1446 1448 1449 1451 1453 1454 1456 1458 1460 1461 1463 1464 1465 1467 1468 1469 1470 1472 1473 1475 1476 1477 1478 1480 1481 1482 1483 1483 1484 1484 1485 1486 1487 1487 1488 1488 1489 1489 1490 1490 1490 1490 1491 1491 1491 1491 1491 1491 1491 1490 1490 1490 1490 1490 1490 1490 1490 1490 1489
1428 1431 1433 1435 1437 1438 1440 1442 1443 1444 1445 1447 1448 1450 1452 1454 1456 1457 1459 1460 1462 1463 1465 1466 1468 1469 1470 1472 1473 1475 1476 1477 1478 1479 1480 1481 1482 1483 1483 1484 1484 1485 1486 1487 1487 1488 1488 1489 1489 1489 1489 1489 1490 1490 1490 1490 1490 1489 1489 1489 1489 1489 1489 1489 1489 1489 1489 1489 1489
1428 1430 1432 1434 1436 1438 1439 1440 1442 1443 1445 1446 1448 1450 1452 1453 1455 1456 1458 1459 1461 1463 1465 1466 1467 1469 1470 1472 1473 1474 1476 1477 1478 1479 1480 1481 1481 1482 1483 1483 1484 1484 1485 1486 1486 1487 1488 1488 1488 1488 1488 1488 1489 1489 1489 1489 1488 1488 1488 1488 1488 1488 1488 1488 1488 1488 1488 1488 1489
1427 1429 1431 1433 1435 1436 1438 1439 1441 1443 1444 1446 1448 1449 1451 1453 1454 1456 1457 1459 1461 1463 1464 1466 1467 1468 1470 1471 1473 1474 1475 1477 1478 1479 1479 1480 1481 1481 1482 1483 1483 1484 1485 1485 1486 1487 1487 1488 1488 1488 1488 1488 1488 1488 1488 1488 1488 1488 1488 1488 1488 1488 1488 1488 1488 1488 1488 1488 1488
1426 1428 1430 1432 1433 1435 1437 1438 1440 1442 1443 1445 1447 1448 1450 1452 1453 1455 1457 1459 1461 1462 1463 1465 1466 1468 1469 1471 1472 1474 1475 1476 1478 1478 1479 1479 1480 1481 1482 1482 1483 1483 1484 1485 1486 1486 1486 1487 1487 1487 1488 1488 1488 1487 1487 1487 1487 1487 1487 1487 1487 1487 1488 1488 1488 1488 1488 1488 1488
1426 1427 1429 1431 1432 1434 1436 1438 1439 1441 1443 1444 1446 1448 1450 1452 1453 1455 1457 1459 1460 1462 1463 1465 1466 1468 1469 1471 1472 1473 1475 1476 1477 1478 1478 1479 1480 1480 1481 1482 1483 1483 1484 1485 1485 1485 1486 1486 1486 1487 1487 1487 1487 1487 1487 1487 1487 1487 1487 1487 1487 1487 1487 1488 1488 1488 1488 1488 1488
1424 1426 1428 1430 1432 1433 1435 1437 1439 1440 1442 1444 1446 1448 1449 1451 1453 1455 1457 1458 1460 1462 1463 1465 1466 1468 1469 1470 1472 1473 1474 1475 1476 1477 1478 1478 1479 1480 1481 1481 1482 1483 1483 1484 1484 1485 1485 1485 1486 1486 1486 1486 1487 1487 1487 1487 1487 1487 1487 1487 1487 1487 1487 1488 1488 1488 1488 1488 1488
1423 1425 1427 1429 1431 1433 1434 1436 1438 1439 1441 1443 1445 1447 1449 1451 1453 1455 1457 1458 1460 1461 1463 1464 1466 1468 1469 1470 1472 1473 1474 1475 1476 1477 1477 1478 1479 1480 1480 1481 1482 1483 1483 1483 1483 1484 1484 1484 1485 1485 1486 1486 1486 1486 1487 1487 1487 1487 1487 1487 1487 1487 1487 1488 1488 1488 1488 1488 1488
1422 1424 1426 1428 1430 1431 1433 1435 1437 1439 1441 1443 1445 1447 1449 1451 1453 1454 1456 1458 1459 1461 1463 1464 1466 1467 1469 1470 1471 1472 1473 1474 1475 1476 1477 1478 1478 1479 1480 1480 1481 1482 1482 1483 1483 1483 1483 1484 1484 1485 1485 1485 1486 1486 1486 1486 1486 1486 1486 1487 1487 1487 1487 1488 1488 1488 1488 1488 1488
1421 1423 1425 1427 1428 1430 1432 1434 1436 1438 1441 1443 1445 1447 1449 1451 1452 1454 1456 1457 1459 1461 1462 1464 1465 1467 1468 1470 1471 1472 1473 1474 1475 1476 1477 1477 1478 1479 1479 1480 1480 1481 1481 1482 1482 1483 1483 1483 1484 1484 1485 1485 1485 1485 1486 1486 1486 1486 1486 1487 1487 1487 1488 1488 1488 1488 1488 1488 1487
1420 1421 1423 1425 1427 1429 1432 1434 1436 1438 1440 1443 1445 1447 1449 1451 1452 1454 1455 1457 1458 1460 1462 1463 1465 1466 1468 1469 1470 1472 1473 1474 1474 1475 1476 1477 1478 1478 1478 1479 1479 1480 1481 1481 1482 1482 1483 1483 1483 1484 1484 1484 1485 1485 1485 1486 1486 1486 1487 1487 1487 1487 1487 1488 1488 1488 1488 1487 1487
1419 1420 1422 1424 1426 1428 1431 1433 1435 1438 1440 1442 1444 1446 1448 1450 1452 1453 1455 1456 1458 1459 1461 1463 1464 1466 1467 1469 1470 1471 1473 1473 1474 1475 1476 1477 1477 1477 1478 1478 1479 1479 1480 1481 1481 1482 1482 1483 1483 1483 1484 1484 1484 1485 1485 1486 1486 1486 1487 1487 1487 1487 1488 1488 1488 1488 1487 1487 1487
1418 1420 1421 1423 1426 1428 1431 1433 1435 1438 1440 1442 1444 1446 1448 1449 1451 1453 1455 1456 1458 1459 1461 1463 1464 1466 1467 1468 1470 1471 1472 1473 1474 1475 1475 1476 1477 1477 1477 1478 1478 1479 1480 1480 1481 1481 1482 1482 1483 1483 1484 1484 1484 1485 1485 1486 1486 1487 1487 1487 1487 1487 1488 1488 1488 1487 1487 1487 1487
1418 1419 1421 1423 1425 1428 1430 1433 1435 1437 1439 1442 1444 1446 1448 1449 1451 1453 1454 1456 1458 1459 1461 1462 1464 1465 1467 1468 1469 1470 1472 1473 1474 1474 1475 1475 1476 1477 1477 1477 1478 1479 1479 1480 1481 1481 1482 1482 1483 1483 1484 1484 1485 1485 1486 1486 1486 1487 1487 1487 1487 1487 1488 1488 1487 1487 1487 1487 1487
1418 1419 1421 1423 1425 1428 1430 1433 1435 1437 1439 1442 1443 1445 1447 1449 1451 1452 1454 1456 1458 1459 1461 1462 1463 1465 1467 1468 1469 1470 1471 1472 1473 1474 1474 1475 1476 1476 1477 1477 1478 1478 1479 1480 1480 1481 1481 1482 1483 1483 1484 1484 1485 1485 1486 1486 1486 1487 1487 1487 1487 1487 1487 1487 1487 1487 1487 1486 1486
1417 1419 1422 1424 1426 1428 1431 1433 1435 1437 1439 1441 1443 1445 1446 1448 1450 1452 1453 1455 1457 1459 1460 1462 1463 1465 1466 1468 1468 1469 1470 1471 1473 1473 1474 1474 1475 1476 1477 1477 1478 1478 1479 1480 1480 1481 1481 1482 1483 1483 1484 1485 1485 1486 1486 1486 1487 1487 1487 1487 1488 1488 1487 1487 1487 1487 1486 1486 1486